CW3904 Weather Reports


Display with metric or nautical units.
time (UTC)temp
F
wind
direction
speed
MPH
gust
MPH
rain 1hr
in
rain 24hr
in
rain mn
in
humidity
%
barometer
mb
20260505053205 58 200 5.0 7.0 0.00 0.35 0.00 83 1001.1
20260505052403 58 200 6.0 8.0 0.00 0.35 0.00 83 1000.8
20260505051603 58 198 6.0 10.0 0.00 0.35 0.00 84 1000.9
20260505051012 58 196 6.0 10.0 0.00 0.35 0.00 84 1000.8
20260505050216 57 196 7.0 11.0 0.00 0.35 0.00 85 1000.7
20260505041603 56 168 4.0 7.0 0.02 0.35 0.00 90 1000.1
20260505040803 56 158 4.0 7.0 0.03 0.35 0.00 89 999.8
20260505040006 57 166 5.0 7.0 0.03 0.35 0.00 88 1000.2
20260505035603 57 172 5.0 7.0 0.03 0.35 0.35 87 1000.2
20260505034803 57 175 5.0 7.0 0.03 0.35 0.35 86 1000.2
20260505034003 58 172 5.0 8.0 0.03 0.35 0.35 85 1000.0
20260505033412 58 188 4.0 10.0 0.04 0.35 0.35 85 1000.2
20260505032616 58 199 6.0 13.0 0.04 0.34 0.34 86 1001.0
20260505031815 58 199 10.0 20.0 0.05 0.34 0.34 86 1001.3
20260505030803 58 201 8.0 12.0 0.06 0.32 0.32 86 1001.2
20260505030003 58 201 7.0 12.0 0.15 0.32 0.32 85 1000.9
20260505025817 58 201 7.0 11.0 0.16 0.32 0.32 85 1000.8
20260505024803 59 193 13.0 22.0 0.22 0.32 0.32 81 1000.8
20260505024214 60 187 13.0 22.0 0.24 0.32 0.32 79 1000.2
20260505023413 60 190 9.0 14.0 0.24 0.31 0.31 81 1000.5
20260505022617 60 181 11.0 15.0 0.23 0.30 0.30 82 1000.6
20260505021603 59 193 6.0 12.0 0.23 0.29 0.29 86 1001.0
20260505020803 59 203 4.0 13.0 0.20 0.26 0.26 86 1001.5
20260505020213 59 234 1.0 4.0 0.12 0.18 0.18 85 1001.4
20260505015603 59 340 1.0 4.0 0.09 0.15 0.15 83 1001.2
20260505014803 60 346 1.0 4.0 0.04 0.10 0.10 81 1000.6
20260505014003 60 340 4.0 7.0 0.01 0.07 0.07 80 1000.7
20260505013203 60 341 3.0 6.0 0.02 0.07 0.07 81 1000.7
20260505012612 61 345 4.0 6.0 0.03 0.07 0.07 81 1000.4
20260505011603 62 237 1.0 4.0 0.06 0.06 0.06 79 1000.2
20260505011015 63 191 3.0 7.0 0.06 0.06 0.06 76 999.6
20260505010214 62 181 2.0 7.0 0.06 0.06 0.06 78 999.1
20260505005813 62 189 1.0 4.0 0.06 0.06 0.06 79 999.1
20260505004803 62 187 1.0 4.0 0.06 0.06 0.06 78 999.2
20260505004216 63 238 1.0 3.0 0.06 0.06 0.06 76 999.3
20260505003203 65 226 2.0 4.0 0.05 0.05 0.05 71 999.4
20260505002613 68 207 4.0 11.0 0.04 0.04 0.04 64 999.5
20260505001817 71 191 9.0 14.0 0.00 0.00 0.00 47 998.7
20260505000803 72 201 9.0 18.0 0.00 0.00 0.00 48 998.7
20260505000003 72 202 10.0 18.0 0.00 0.00 0.00 44 998.7
20260504235603 72 204 10.0 21.0 0.00 0.00 0.00 44 999.1
20260504234803 72 204 11.0 21.0 0.00 0.00 0.00 44 999.2
20260504234003 72 200 9.0 16.0 0.00 0.00 0.00 47 999.1
20260504233203 71 196 10.0 18.0 0.00 0.00 0.00 51 998.6
20260504232614 71 200 9.0 18.0 0.00 0.00 0.00 53 998.9
20260504231603 71 195 10.0 16.0 0.00 0.00 0.00 55 998.7
20260504230803 71 194 13.0 24.0 0.00 0.00 0.00 55 998.6
20260504230215 72 198 14.0 24.0 0.00 0.00 0.00 54 998.7
20260504225603 72 196 15.0 24.0 0.00 0.00 0.00 54 998.7
20260504224803 72 200 15.0 25.0 0.00 0.00 0.00 53 998.8
20260504224217 73 197 15.0 24.0 0.00 0.00 0.00 53 999.0
20260504223416 73 200 16.0 27.0 0.00 0.00 0.00 52 999.1
20260504222403 73 203 15.0 25.0 0.00 0.00 0.00 51 999.1
20260504221603 73 204 13.0 24.0 0.00 0.00 0.00 49 999.1
20260504220803 74 203 16.0 28.0 0.00 0.00 0.00 47 999.1
20260504220003 74 203 15.0 25.0 0.00 0.00 0.00 44 999.0
20260504215815 74 205 14.0 23.0 0.00 0.00 0.00 43 999.1
20260504214803 75 199 15.0 25.0 0.00 0.00 0.00 45 999.1
20260504214212 75 198 15.0 25.0 0.00 0.00 0.00 42 999.2
20260504213203 75 203 11.0 22.0 0.00 0.00 0.00 39 999.2
20260504212403 75 202 11.0 19.0 0.00 0.00 0.00 39 999.2
20260504211814 75 204 12.0 21.0 0.00 0.00 0.00 40 999.2
20260504210803 75 204 10.0 21.0 0.00 0.00 0.00 40 999.2
20260504210216 75 204 10.0 21.0 0.00 0.00 0.00 40 999.2
20260504205816 75 203 9.0 15.0 0.00 0.00 0.00 39 999.3
20260504204803 75 203 9.0 19.0 0.00 0.00 0.00 40 999.3
20260504204213 75 203 10.0 20.0 0.00 0.00 0.00 42 999.3
20260504203203 75 205 8.0 16.0 0.00 0.00 0.00 39 999.3
20260504202616 75 204 8.0 16.0 0.00 0.00 0.00 39 999.3
20260504201814 76 206 10.0 20.0 0.00 0.00 0.00 40 999.4
20260504201013 76 202 9.0 21.0 0.00 0.00 0.00 35 999.4
20260504200003 78 202 8.0 17.0 0.00 0.00 0.00 32 999.3
20260504195603 78 205 8.0 18.0 0.00 0.00 0.00 36 999.4
20260504195015 78 207 6.0 18.0 0.00 0.00 0.00 33 999.5
20260504194214 78 207 5.0 14.0 0.00 0.00 0.00 37 999.8
20260504193412 76 199 11.0 19.0 0.00 0.00 0.00 43 999.9
20260504192403 75 202 7.0 12.0 0.00 0.00 0.00 41 999.9
20260504191603 75 202 9.0 21.0 0.00 0.00 0.00 41 1000.1
20260504190803 76 198 9.0 19.0 0.00 0.00 0.00 37 1000.1
20260504190003 76 199 11.0 20.0 0.00 0.00 0.00 39 1000.2
20260504185817 76 201 10.0 20.0 0.00 0.00 0.00 38 1000.4
20260504185016 75 205 7.0 13.0 0.00 0.00 0.00 41 1000.5
20260504184003 75 204 8.0 16.0 0.00 0.00 0.00 42 1000.7
20260504183203 74 199 13.0 24.0 0.00 0.00 0.00 42 1000.9
20260504182403 74 204 8.0 15.0 0.00 0.00 0.00 43 1000.9
20260504181816 75 203 9.0 15.0 0.00 0.00 0.00 45 1000.9
20260504180803 74 201 10.0 21.0 0.00 0.00 0.00 45 1001.0
20260504180213 75 203 8.0 15.0 0.00 0.00 0.00 46 1001.0
20260504175812 75 202 8.0 16.0 0.00 0.00 0.00 44 1001.1
20260504175016 74 199 9.0 18.0 0.00 0.00 0.00 48 1001.1
20260504174215 73 201 9.0 18.0 0.00 0.00 0.00 46 1001.3
20260504173414 73 198 11.0 21.0 0.00 0.00 0.00 47 1001.5
20260504172612 73 199 10.0 17.0 0.00 0.00 0.00 47 1001.3
20260504171603 72 202 7.0 15.0 0.00 0.00 0.00 49 1001.6
20260504171015 72 204 7.0 14.0 0.00 0.00 0.00 47 1001.6
20260504170214 72 198 12.0 21.0 0.00 0.00 0.00 48 1002.0
20260504151016 66 198 7.0 13.0 0.00 0.00 0.00 53 1003.3
20260504150215 65 197 7.0 15.0 0.00 0.00 0.00 54 1003.4
20260504141017 60 203 6.0 10.0 0.00 0.00 0.00 64 1004.1
20260504081817 50 188 5.0 7.0 0.00 0.00 0.00 76 1005.0
20260504080803 50 186 5.0 7.0 0.00 0.00 0.00 75 1004.9
20260504070215 52 184 6.0 10.0 0.00 0.00 0.00 72 1005.7
20260504060216 52 178 7.0 12.0 0.00 0.00 0.00 71 1006.3